Hutchinson, KS

4:22 AM CDT on May 30, 2017 (GMT -0500)
Hutchinson Municipal

Weather History for KHUT - October, 2012

Change the Weather History Date:

Thursday, October 4, 2012

  Actual Average Record
Temperature  
Mean Temperature 58 °F -  
Max Temperature 66 °F 71 °F 91 °F (2007)
Min Temperature 50 °F 46 °F 28 °F (1999)
Degree Days  
Heating Degree Days 7    
Growing Degree Days 8 (Base 50)    
Moisture  
Dew Point 39 °F    
Average Humidity 51    
Maximum Humidity 69    
Minimum Humidity 36    
Precipitation  
Precipitation 0.00 in - - ()
Sea Level Pressure  
Sea Level Pressure 30.16 in    
Wind  
Wind Speed 10 mph (North)    
Max Wind Speed 20 mph    
Max Gust Speed 30 mph    
Visibility 10 miles    
Events      
Averages and records for this station are not official NWS values.
T = Trace of Precipitation, MM = Missing Value Source: NWS Daily Summary

Daily Weather History Graph

Daily Weather History Graph

Search for Another Location

Airport or City:

Trip Planner

Search our weather history database for the weather conditions in past years. The results will help you decide how hot, cold, wet, or windy it might be!

Date:

Astronomy

Oct. 04, 2012 Rise Set
Actual Time 7:30 AM CDT 7:09 PM CDT
Civil Twilight 7:03 AM CDT 7:35 PM CDT
Nautical Twilight 6:33 AM CDT 8:05 PM CDT
Astronomical Twilight 6:02 AM CDT 8:36 PM CDT
Moon 9:50 PM CDT (10/4) 11:44 AM CDT (10/4)
Length of Visible Light 12h 31m
Length of Day
11h 38m
Waning Gibbous, 82% of the Moon is Illuminated
Oct 4
Waning Gibbous
Oct 8
Last Quarter
Oct 15
New
Oct 21
First Quarter
Oct 29
Full

Hourly Weather History & Observations

Time (CDT) Temp. Dew Point Humidity Pressure Visibility Wind Dir Wind Speed Gust Speed Precip Events Conditions
12:52 AM 64.0 °F 50.0 °F 60% 29.89 in 10.0 mi South 5.8 mph - N/A   Clear
1:52 AM 66.0 °F 50.0 °F 56% 29.95 in 10.0 mi Calm Calm - N/A   Clear
2:52 AM 60.1 °F 50.0 °F 69% 29.99 in 10.0 mi NNW 3.5 mph - N/A   Clear
3:40 AM 60.8 °F 44.6 °F 55% 30.07 in 10.0 mi North 12.7 mph 23.0 mph N/A   Overcast
3:52 AM 60.1 °F 44.1 °F 55% 30.02 in 10.0 mi North 12.7 mph 25.3 mph N/A   Overcast
4:52 AM 55.9 °F 39.9 °F 55% 30.07 in 10.0 mi North 18.4 mph 28.8 mph N/A   Partly Cloudy
5:52 AM 54.0 °F 39.9 °F 59% 30.12 in 10.0 mi North 17.3 mph 27.6 mph N/A   Clear
6:52 AM 53.1 °F 39.9 °F 61% 30.14 in 10.0 mi North 12.7 mph 25.3 mph N/A   Clear
7:52 AM 51.1 °F 39.9 °F 66% 30.18 in 10.0 mi North 16.1 mph 29.9 mph N/A   Clear
8:52 AM 51.1 °F 37.9 °F 61% 30.21 in 10.0 mi North 16.1 mph 28.8 mph N/A   Overcast
9:52 AM 50.0 °F 37.0 °F 61% 30.25 in 10.0 mi North 17.3 mph 23.0 mph N/A   Overcast
10:52 AM 51.1 °F 35.1 °F 54% 30.26 in 10.0 mi North 19.6 mph 25.3 mph N/A   Overcast
11:52 AM 53.1 °F 36.0 °F 52% 30.26 in 10.0 mi North 13.8 mph 23.0 mph N/A   Overcast
12:52 PM 55.9 °F 36.0 °F 47% 30.25 in 10.0 mi North 15.0 mph 23.0 mph N/A   Overcast
1:52 PM 59.0 °F 35.1 °F 41% 30.23 in 10.0 mi North 15.0 mph 23.0 mph N/A   Clear
2:52 PM 62.1 °F 35.1 °F 37% 30.21 in 10.0 mi NNE 13.8 mph 18.4 mph N/A   Clear
3:52 PM 61.0 °F 34.0 °F 36% 30.20 in 10.0 mi NNE 12.7 mph - N/A   Overcast
4:52 PM 60.1 °F 34.0 °F 38% 30.20 in 10.0 mi North 13.8 mph 20.7 mph N/A   Overcast
5:52 PM 59.0 °F 34.0 °F 39% 30.20 in 10.0 mi NNE 9.2 mph - N/A   Overcast
6:52 PM 57.0 °F 35.1 °F 44% 30.22 in 10.0 mi NNE 6.9 mph - N/A   Overcast
7:52 PM 57.0 °F 35.1 °F 44% 30.22 in 10.0 mi NNE 5.8 mph - N/A   Overcast
8:52 PM 55.9 °F 34.0 °F 44% 30.23 in 10.0 mi NNE 4.6 mph - N/A   Overcast
10:52 PM 55.0 °F 35.1 °F 47% 30.26 in 10.0 mi NNE 5.8 mph - N/A   Overcast
11:52 PM 55.0 °F 35.1 °F 47% 30.25 in 10.0 mi NNE 5.8 mph - N/A   Overcast